Regional Weather Roundup
Issued by NWS Charleston, SC

Current Version | Previous Version | Text Only | Print | Product List | Glossary On
Versions: 1 2 3 4 5 6 7 8 9 10 11 12 13 14 15 16 17 18 19 20 21 22 23 24 25 26 27 28 29 30 31 32 33 34 35 36 37 38 39 40 41 42 43 44 45 46 47 48 49 50
000
ASUS42 KCHS 021625
RWRCHS

REGIONAL WEATHER ROUNDUP
NATIONAL WEATHER SERVICE CHARLESTON SC
1200 PM EDT TUE SEP 02 2014

NOTE: "FAIR" INDICATES FEW OR NO CLOUDS BELOW 12,000 FEET WITH NO
SIGNIFICANT WEATHER AND/OR OBSTRUCTIONS TO VISIBILITY.

NOT ALL STATIONS ARE QUALITY CONTROLLED BY THE NATIONAL
WEATHER SERVICE. USE DATA WITH CAUTION...ESPECIALLY
DEWPOINT OBSERVATIONS.

SCZ027-030-031-034>040-042>050-021700-
...SOUTH CAROLINA...

CITY           SKY/WX    TMP DP  RH WIND       PRES   REMARKS
N CHARLESTON   MOSUNNY   92  74  55 SW7       30.08F HX 101
WATERFRONT PRK   N/A     91 N/A N/A CALM        N/A
FORT JOHNSON   NOT AVBL
MOUNT PLEASANT FAIR      90  75  62 S7        30.08F HX 100
JOHNS ISLAND   MOSUNNY   90  79  70 SE7       30.09F HX 105
PINOPOLIS        N/A     88  77  70 CALM      30.01F HX 100
MONCKS CORNER    N/A     90  79  70 CALM      30.07F HX 105
SUMMERVILLE    FAIR      90  77  66 S3        30.08F HX 102
BEAUFORT MCAS  PTSUNNY   93  74  53 S5        30.08F HX 103
BEAUFORT ARPT  FAIR      90  75  62 SE3       30.08F HAZE    HX 100
HILTON HEAD IS SUNNY     88  75  66 S8        30.10F HX  97
GEORGETOWN     NOT AVBL
WALTERBORO     MOSUNNY   91  70  49 SW5       30.07F HX  97
ORANGEBURG     MOSUNNY   88  73  61 VRB5      30.08F HX  95
BARNWELL       FAIR      90  73  58 E3        30.09F HX  98
AIKEN          FAIR      91  72  52 SW5       30.12F HX  98
MANNING        FAIR      90  77  66 SW5       30.07F HX 102
KINGSTREE      NOT AVBL
COLUMBIA       MOSUNNY   91  70  49 S3        30.07F HX  96
SUMTER         SUNNY     90  74  59 W6        30.06F HX  98
FLORENCE       SUNNY     92  75  57 S7        30.07F HX 103
MYRTLE BEACH   MOSUNNY   91  75  59 S7        30.08F HX 102
N MYRTLE BEACH MOSUNNY   87  76  69 S9        30.08  HX  97

$$

GAZ063-065-086>088-099>101-113>116-118-119-134-136>141-150-021700-
...GEORGIA...

CITY           SKY/WX    TMP DP  RH WIND       PRES   REMARKS
SAVANNAH ARPT  PTSUNNY   92  74  55 VRB3      30.09S HX 101
HUNTER AAF     MOSUNNY   92  76  59 CALM      30.07F HX 104
FORT STEWART   SUNNY     91  73  55 VRB5      30.07F HX  99
STATESBORO     NOT AVBL
SYLVANIA       SUNNY     92  78  65 CALM      30.09F HX 107
CLAXTON        NOT AVBL
THOMSON        MOSUNNY   89  78  69 CALM      30.14S HX 102
AUGUSTA-BUSH   MOSUNNY   87  72  60 SW6       30.08F HX  93
AUGUSTA-DANIEL MOSUNNY   84  71  65 W5        30.11S
SWAINSBORO     FAIR      91  75  59 NW3       30.10F HX 102
VIDALIA          N/A     81  75  83 CALM      30.11S
ALMA           MOSUNNY   85  73  67 CALM      30.11S HX  91
WAYCROSS       MOSUNNY   91  77  64 N3        30.10F HX 104
JESUP            N/A     95  75  52 CALM      30.09F HX 107
BRUNSWICK      MOSUNNY   90  72  55 W3        30.09F HX  96
SAINT SIMONS   SUNNY     87  75  67 VRB3      30.09F HX  96

$$

SCZ027-028-034-036>038-045-046-048>050-GAZ119-141-021700-
...LAKE AND SUPPLEMENTAL COASTAL OBSERVATIONS...

STATION/POSITION TIME  TEMP    WIND        PRES    WAVE   SWELL
                       AIR SEA DIR/SP/G            HT/PER HT/PER/DIR
                 (UTC) (F)     (DEG/KT/KT) (MB)    (FT/S) (FT/S/D)
UPR LAKE MARION  NOT AVBL
WINYAH BAY       1600   87     140/  4     1018.0S
LAKE MURRAY      1500   85     190/  7/  9 1017.9F
ACE BASIN NERRS  1600   89     180/  1     1019.0S
FORT PULASKI     1600   86     170/  5/  8 1019.1F
SAPELO ISLAND    1600   90     170/  6     1020.0S

$$

ANZ835-935-AMZ111-154-330-350-352-354-374-450-454-472-021700-
...C-MAN AND BUOY OBSERVATIONS...

STATION/POSITION TIME  TEMP    WIND        PRES    WAVE   SWELL
                       AIR SEA DIR/SP/G            HT/PER HT/PER/DIR
                 (UTC) (F)     (DEG/KT/KT) (MB)    (FT/S) (FT/S/D)
FOLLY BEACH CMAN 1600   86     180/  9/ 10 1019.3F
BUOY 41004       1600   83 84  200/  2/  4 1019.1S   2/ 9   2/ 9
BUOY 41008       1600   83 85  210/  8/ 10 1019.2F   2/ 8   2/120/ 8
5E ST. MARYS GA  1600      85                N/A     2/ 8
FRYING PAN BUOY  NOT AVBL
BUOY 41025       1600   81     220/ 10/ 12 1018.2F   3/ 4   2/120/ 9
CAPE LOOKOUT NC  1600   83     230/  9/ 12 1018.3F
BUOY 41002       1527   82 84  210/  8/ 10 1021.3F   3/13   3/ 70/13
BUOY 41010       1600   83 84  100/  6/  8 1019.8S   3/12   3/ 40/12
BUOY 41012       NOT AVBL
ST AUGUSTINE FL  1600   83     120/  7/  7 1020.1F
CAPERS NEARSHORE 1500   83     150/  4/  6   N/A
FRIPP NEARSHORE  NOT AVBL


$$



USA.gov is the U.S. government's official web portal to all federal, state and local government web resources and services.